JES3108 SABE-SACO

Flight info

Callsign JES3108
Flight time N/A
Altitude 36000
Route ATOVO4B ATOVO UW5 ASISA ASISA2X
Aircraft A320/M-SDE3FGHIRWY/LB1

Departure

Time 2026-05-06 21:06
Airport Aeroparque Jorge Newbery (SABE)

Arrival

Time N/A
Airport Ingeniero Aeronáutico Ambrosio L.V. Taravella International Airport (SACO)
Time Latitude Longitude Altitude Speed Heading
2026-05-06 20:38 -34.55528 -58.41714 26 ft 0 kts 33°
2026-05-06 20:55 -34.55546 -58.41727 27 ft 4 kts 27°
2026-05-06 20:55 -34.55571 -58.41741 30 ft 4 kts 19°
2026-05-06 20:55 -34.55597 -58.41750 28 ft 4 kts
2026-05-06 20:55 -34.55623 -58.41751 29 ft 4 kts 346°
2026-05-06 20:56 -34.55642 -58.41739 30 ft 1 kts 304°
2026-05-06 21:01 -34.55636 -58.41750 29 ft 2 kts 304°
2026-05-06 21:02 -34.55624 -58.41772 29 ft 5 kts 304°
2026-05-06 21:02 -34.55615 -58.41817 27 ft 6 kts 246°
2026-05-06 21:02 -34.55647 -58.41868 29 ft 9 kts 238°
2026-05-06 21:02 -34.55631 -58.41938 25 ft 10 kts 303°
2026-05-06 21:03 -34.55589 -58.42017 28 ft 12 kts 302°
2026-05-06 21:03 -34.55535 -58.42108 28 ft 14 kts 309°
2026-05-06 21:03 -34.55500 -58.42163 30 ft 12 kts 306°
2026-05-06 21:03 -34.55447 -58.42250 27 ft 12 kts 306°
2026-05-06 21:04 -34.55399 -58.42329 25 ft 9 kts 307°
2026-05-06 21:04 -34.55377 -58.42366 26 ft 0 kts 298°
2026-05-06 21:04 -34.55374 -58.42376 26 ft 3 kts 291°
2026-05-06 21:05 -34.55367 -58.42410 27 ft 6 kts 283°
2026-05-06 21:05 -34.55365 -58.42479 25 ft 11 kts 245°
2026-05-06 21:05 -34.55406 -58.42504 28 ft 4 kts 155°
2026-05-06 21:05 -34.55421 -58.42480 26 ft 5 kts 124°
2026-05-06 21:06 -34.55587 -58.42181 27 ft 79 kts 124°
2026-05-06 21:06 -34.56005 -58.41430 28 ft 132 kts 124°
2026-05-06 21:06 -34.56541 -58.40456 479 ft 140 kts 122°
2026-05-06 21:06 -34.57087 -58.39444 1027 ft 147 kts 118°
2026-05-06 21:07 -34.57554 -58.38259 1280 ft 169 kts 101°
2026-05-06 21:07 -34.57775 -58.36779 1565 ft 187 kts 84°
2026-05-06 21:07 -34.57659 -58.35143 1838 ft 203 kts 69°
2026-05-06 21:07 -34.57115 -58.33492 2140 ft 220 kts 51°
2026-05-06 21:08 -34.56096 -58.32025 2578 ft 236 kts 33°
2026-05-06 21:08 -34.54703 -58.30915 3283 ft 244 kts 25°
2026-05-06 21:08 -34.53234 -58.29827 4154 ft 252 kts 24°
2026-05-06 21:08 -34.51717 -58.28699 4562 ft 258 kts 24°
2026-05-06 21:09 -34.50106 -58.27823 4690 ft 250 kts
2026-05-06 21:09 -34.48409 -58.27619 4723 ft 242 kts 351°
2026-05-06 21:09 -34.46808 -58.28107 4725 ft 237 kts 332°
2026-05-06 21:09 -34.45531 -58.29393 5141 ft 246 kts 308°
2026-05-06 21:10 -34.44590 -58.31102 6200 ft 244 kts 305°
2026-05-06 21:10 -34.43652 -58.32828 7148 ft 245 kts 306°
2026-05-06 21:10 -34.42712 -58.34560 8071 ft 247 kts 306°
2026-05-06 21:10 -34.41766 -58.36305 8973 ft 249 kts 306°
2026-05-06 21:11 -34.40810 -58.38070 9818 ft 252 kts 306°
2026-05-06 21:11 -34.39809 -58.39914 10203 ft 273 kts 306°
2026-05-06 21:11 -34.38723 -58.41910 10515 ft 292 kts 305°
2026-05-06 21:11 -34.37591 -58.43994 11140 ft 299 kts 304°
2026-05-06 21:12 -34.36445 -58.46117 11838 ft 303 kts 304°
2026-05-06 21:12 -34.35284 -58.48271 12535 ft 307 kts 304°
2026-05-06 21:12 -34.34110 -58.50447 13232 ft 310 kts 304°
2026-05-06 21:12 -34.32923 -58.52640 13849 ft 314 kts 304°
2026-05-06 21:13 -34.31721 -58.54857 14452 ft 316 kts 304°
2026-05-06 21:13 -34.30508 -58.57092 15033 ft 320 kts 304°
2026-05-06 21:13 -34.29279 -58.59353 15631 ft 323 kts 304°
2026-05-06 21:13 -34.28040 -58.61633 16283 ft 325 kts 304°
2026-05-06 21:14 -34.26794 -58.63929 16919 ft 328 kts 304°
2026-05-06 21:14 -34.25537 -58.66236 17570 ft 330 kts 304°
2026-05-06 21:14 -34.24271 -58.68562 18176 ft 333 kts 304°
2026-05-06 21:14 -34.22995 -58.70909 18756 ft 335 kts 304°
2026-05-06 21:15 -34.21711 -58.73267 19345 ft 337 kts 304°
2026-05-06 21:15 -34.20416 -58.75646 19939 ft 340 kts 304°
2026-05-06 21:15 -34.19112 -58.78041 20501 ft 342 kts 304°
2026-05-06 21:15 -34.17797 -58.80448 21054 ft 345 kts 304°
2026-05-06 21:16 -34.16468 -58.82880 21576 ft 348 kts 304°
2026-05-06 21:16 -34.15130 -58.85326 22079 ft 351 kts 304°
2026-05-06 21:16 -34.13777 -58.87796 22580 ft 355 kts 304°
2026-05-06 21:16 -34.12410 -58.90289 23110 ft 357 kts 304°
2026-05-06 21:17 -34.11031 -58.92799 23563 ft 360 kts 304°
2026-05-06 21:17 -34.09645 -58.95326 24012 ft 362 kts 304°
2026-05-06 21:17 -34.08253 -58.97862 24459 ft 364 kts 304°
2026-05-06 21:17 -34.06853 -59.00415 24906 ft 366 kts 304°
2026-05-06 21:18 -34.05448 -59.02979 25365 ft 367 kts 304°
2026-05-06 21:18 -34.04035 -59.05553 25849 ft 368 kts 304°
2026-05-06 21:18 -34.02618 -59.08131 26301 ft 369 kts 304°
2026-05-06 21:18 -34.01191 -59.10717 26743 ft 371 kts 304°
2026-05-06 21:19 -33.99758 -59.13313 27161 ft 373 kts 304°
2026-05-06 21:19 -33.98319 -59.15918 27588 ft 375 kts 303°
2026-05-06 21:19 -33.96869 -59.18540 28015 ft 377 kts 303°
2026-05-06 21:19 -33.95414 -59.21175 28454 ft 379 kts 303°
2026-05-06 21:20 -33.93953 -59.23821 28880 ft 381 kts 303°
2026-05-06 21:20 -33.92481 -59.26477 29304 ft 382 kts 303°
2026-05-06 21:20 -33.91009 -59.29133 29630 ft 376 kts 303°
2026-05-06 21:20 -33.89605 -59.31677 29762 ft 353 kts 303°
2026-05-06 21:21 -33.88300 -59.34034 29906 ft 315 kts 303°
2026-05-06 21:21 -33.87155 -59.36078 30091 ft 276 kts 305°
2026-05-06 21:21 -33.86064 -59.37813 30236 ft 244 kts 307°
2026-05-06 21:21 -33.85060 -59.39327 30232 ft 221 kts 307°
2026-05-06 21:22 -33.84138 -59.40726 30236 ft 208 kts 306°
2026-05-06 21:22 -33.83269 -59.42120 29929 ft 209 kts 304°